Regional Weather Roundup
Issued by NWS State College, PA

Home | Current Version | Previous Version | Graphics & Text | Print | Product List | Glossary On
Versions: 1 2 3 4 5 6 7 8 9 10 11 12 13 14 15 16 17 18 19 20 21 22 23 24 25 26 27 28 29 30 31 32 33 34 35 36 37 38 39 40 41 42 43 44 45 46 47 48 49 50
000
ASUS41 KCTP 301810
RWRCTP

REGIONAL WEATHER ROUNDUP
NATIONAL WEATHER SERVICE STATE COLLEGE PA
200 PM EDT THU OCT 30 2014

Note: "fair" indicates few or no clouds below 12,000 feet with no
significant weather and/or obstructions to visibility.

* = STATION THAT DOES NOT REPORT PRECIPITATION /E.G. RAIN...SNOW...ETC/
    THUNDER OR FOG.

PAZ002>004-007>009-013>016-020>023-029>032-301900-
WESTERN PENNSYLVANIA

CITY           SKY/WX    TMP DP  RH WIND       PRES   REMARKS
ERIE           CLOUDY    48  37  66 N6        30.08F
MEADVILLE      CLOUDY    45  37  73 NW6       30.06F
FRANKLIN*      CLOUDY    45  36  70 NW3       30.07F
NEW CASTLE       N/A     48  38  68 CALM      30.09F
BEAVER COUNTY  CLOUDY    48  37  66 CALM      30.08F
BUTLER*        CLOUDY    48  36  61 W5        30.09F
PITTSBURGH INT CLOUDY    48  37  65 NW3       30.08F
PITTSBURGH     CLOUDY    49  33  54 W3        30.07F
INDIANA*       CLOUDY    48  37  66 NW7       30.10S
LATROBE        CLOUDY    48  39  71 W9        30.09F
WASHINGTON CO* CLOUDY    50  36  57 SW3       30.10F
$$

PAZ004>006-010>012-017>019-024>028-033>037-041-042-045-046-049>053-301900-
CENTRAL PENNSYLVANIA

CITY           SKY/WX    TMP DP  RH WIND       PRES   REMARKS
BRADFORD       CLOUDY    45  37  73 W7        30.03F
DUBOIS         CLOUDY    45  34  65 W8        30.04F
CLEARFIELD     CLOUDY    49  33  54 W5        30.04F
JOHNSTOWN      CLOUDY    44  34  67 NW9       30.03F
ALTOONA        CLOUDY    48  35  60 NW8       30.04F
STATE COLLEGE  CLOUDY    50  34  53 NW6       30.02F
WILLIAMSPORT   CLOUDY    52  33  48 N7        30.02F
SELINSGROVE    CLOUDY    54  36  50 N5        30.03F
FT INDIANTOWN  CLOUDY    54  37  53 N14       30.02F
CAPITAL CITY   CLOUDY    54  37  52 VRB7      30.04F
HARRISBURG     PTSUNNY   53  39  59 NW12      30.02F
YORK           MOSUNNY   53  36  52 NW8       30.03F
$$

PAZ038>040-043-044-047-048-054-055-060>062-067>071-301900-
EASTERN PENNSYLVANIA

CITY           SKY/WX    TMP DP  RH WIND       PRES   REMARKS
SCRANTON       CLOUDY    49  33  54 W8        30.02F
MOUNT POCONO   CLOUDY    45  32  60 N12       29.99S
ALLENTOWN      MOSUNNY   56  35  45 NW12G20   30.00F
QUAKERTOWN*    MOCLDY    55  37  50 NW8       30.01S
READING        CLOUDY    56  36  47 NW8       30.00F
LANCASTER      CLOUDY    54  37  52 NW7       30.02F
COATESVILLE    MOCLDY    55  39  54 NW10G17   30.01F
POTTSTOWN      PTSUNNY   56  38  50 N8        30.01F
BLUE BELL      MOSUNNY   59  39  47 CALM      29.99F
DOYLESTOWN     PTSUNNY   56  38  50 NW5       29.99F
WILLOW GROVE   NOT AVBL
NORTH PHILA    MOSUNNY   60  36  40 NW9       30.01F
PHILADELPHIA   PTSUNNY   59  38  45 NW8G17    30.00F
$$



USA.gov is the U.S. government's official web portal to all federal, state and local government web resources and services.